Location: Kunchanapalle
(16.4623°N, 80.6176°E)
Time: 14:02:31
(UTC+00:00)

Cosmos 2228 Rocket - Pass Details

Date: 13 August 2020
Orbit: 617 x 653 km, 82.5° (Epoch: 24 September)

Event Time Altitude Azimuth Distance (km) Brightness Sun altitude
Rises 14:40:22 0° 348° (NNW) 2,884 7.0 -22.8°
Reaches altitude 10° 14:42:38 10° 344° (NNW) 1,976 6.1 -23.3°
Maximum altitude 14:46:53 55° 267° (W) 742 3.6 -24.2°
Enters shadow 14:48:37 33° 206° (SSW) 1,049 4.2 -24.6°
